Location: Góry Miechowskie
(50.3599°N, 20.1803°E)
Time: 20:22:55
(UTC+00:00)

Meteor 1-11 - Pass Details

Date: 14 September 2024
Orbit: 841 x 884 km, 81.2° (Epoch: 09 October)

Event Time Altitude Azimuth Distance (km) Brightness Sun altitude
Rises 21:55:27 0° 351° (N) 3,485 8.4 -36.0°
Reaches altitude 10° 21:58:04 10° 359° (N) 2,548 7.4 -36.1°
Enters shadow 22:01:41 32° 29° (NNE) 1,478 5.7 -36.2°
